[[{"header":{"parameterUnit":"m.s-1","parameterCategory":2,"la1":30.2991,"la2":30.254,"lo1":-89.0895,"lo2":-89.0444,"dy":0.0017,"dx":0.0017,"nx":28,"ny":28,"refTime":"2025-11-17T09:00:00:Z","depth":"0","parameterNumber":2,"parameterNumberName":"U-component_of_CURRENTS"},"data":[0,0,0,0,0,0,0,0,0,0,0,0,0,0,0,0,0,0,0,0,0,0,0,0,0,0,0,0,0,0,0,0,0,0,0,0,0,0,0,0,0,0,0,0,0,0,0,0,0,0,0,0,0,0,0,0,0,0,0.3425,0.3425,0,0.3358,0.3356,0.3355,0.3255,0.3254,0.3253,0.3252,0.3148,0.3146,0.3144,0,0,0,0,0,0,0,0,0,0,0,0,0,0.3411,0.3412,0.3425,0.3425,0.3425,0.3358,0.3356,0.3355,0.3255,0.3254,0.3252,0.3251,0.3148,0.3146,0.3144,0,0,0,0,0,0,0,0,0,0,0,0,0,0.3382,0.3412,0.3425,0.3371,0.3366,0.3358,0.3356,0.3354,0.3256,0.3254,0.3252,0.325,0.3149,0.3146,0.3144,0.3165,0,0,0.3137,0.3136,0,0,0,0,0,0,0,0,0.3384,0.3382,0.338,0.3375,0.3369,0.3318,0.3313,0.3291,0.3256,0.3292,0.3252,0.3249,0.3207,0.3199,0.3183,0.3161,0.3156,0.3136,0.3135,0.3134,0.3133,0,0,0,0,0,0,0,0.3386,0.3384,0.3392,0.338,0.3373,0.3331,0.3325,0.3308,0.3255,0.3288,0.3282,0.3285,0.3202,0.3185,0.318,0.3155,0.3136,0.3134,0.3133,0.3132,0.3196,0.3199,0,0,0,0,0,0,0.3412,0.3387,0.3395,0.3391,0.3379,0.3334,0.3326,0.3332,0.3256,0.3244,0.3286,0.328,0.319,0.3183,0.3176,0.3264,0.3134,0.3132,0.313,0.3193,0.3197,0.3201,0,0,0,0,0,0,0.3412,0.3413,0.3398,0.3391,0.3387,0.3337,0.3343,0.3331,0.3319,0.3256,0.3242,0.3287,0.3189,0.3179,0.318,0.3257,0.313,0.3128,0.3189,0.3194,0.3199,0.3398,0,0,0,0,0,0,0.3412,0.3414,0.3433,0.3394,0.3389,0.3413,0.3345,0.3332,0.3326,0.3317,0.3253,0.324,0.3186,0.3184,0.3177,0.3251,0.3126,0.3185,0.3192,0.3197,0.3387,0.3409,0.3427,0,0,0,0,0,0.3411,0.3449,0.3434,0.3435,0.3414,0.3416,0.341,0.3362,0.3329,0.334,0.3297,0.3242,0.3217,0.3184,0.3176,0.3251,0.3183,0.319,0.3197,0.3378,0.3405,0.3427,0,0,0,0,0,0,0.3462,0.3442,0.3424,0.3456,0.3447,0.3402,0.3415,0.3381,0.3355,0.3348,0.3273,0.326,0.3293,0.3244,0.321,0.3288,0.3196,0.3202,0.3337,0.3361,0.3381,0.3348,0.3124,0,0,0,0,0,0.3484,0.35,0.3477,0.3507,0.3508,0.3465,0.3462,0.3433,0.3405,0.339,0.3348,0.3317,0.3318,0.3315,0.3295,0.3335,0.3326,0.338,0.3401,0.3418,0.3387,0.346,0.3485,0.3224,0.3224,0.3224,0,0,0.3512,0.3507,0.3515,0.3518,0.3505,0.3521,0.3457,0.3469,0.3481,0.3387,0.3398,0.3381,0.3342,0.3387,0.3399,0.3356,0.3505,0.3427,0.3442,0.34,0.347,0.3496,0.3518,0.3229,0.3228,0.3227,0,0,0.3575,0.3575,0.3603,0.3603,0.3602,0.3581,0.3593,0.3564,0.3551,0.3561,0.3517,0.3541,0.3515,0.3521,0.3517,0.3635,0.3606,0.3647,0.3726,0.3802,0.3823,0.3842,0.3939,0.3964,0.3662,0.3662,0.3663,0,0.3611,0.3632,0.3616,0.3644,0.3649,0.3615,0.3643,0.3641,0.3616,0.3623,0.3585,0.3599,0.3576,0.3648,0.3688,0.3682,0.372,0.3643,0.3829,0.3847,0.3862,0.3956,0.3982,0.3673,0.3671,0.367,0.3669,0,0.3677,0.37,0.3724,0.3739,0.3753,0.3775,0.377,0.3787,0.3766,0.3754,0.3803,0.3784,0.3785,0.3819,0.3779,0.3902,0.3897,0.3849,0.377,0.3901,0.3992,0.4015,0.3688,0.3684,0.3681,0.3678,0,0,0.3723,0.376,0.3763,0.3771,0.3797,0.3804,0.3861,0.3884,0.3908,0.3916,0.3954,0.399,0.3976,0.3968,0.3967,0.4029,0.4209,0.3991,0.399,0.4091,0.441,0.4453,0.4481,0.4206,0.4209,0.4212,0.4457,0,0.3768,0.3821,0.3834,0.3881,0.3898,0.3904,0.395,0.3977,0.3986,0.4022,0.4046,0.4072,0.404,0.4057,0.4128,0.4159,0.4266,0.4148,0.426,0.4263,0.4288,0.4507,0.4439,0.4654,0.4479,0.4482,0.4485,0,0.3802,0.3831,0.3881,0.3917,0.3928,0.3957,0.4003,0.4039,0.4104,0.4118,0.4172,0.4171,0.4269,0.421,0.4375,0.4305,0.4374,0.4408,0.4418,0.4382,0.4346,0.4478,0.4701,0.4476,0.4519,0.4517,0.4514,0,0.3786,0.3849,0.3879,0.3893,0.3947,0.3972,0.3999,0.4061,0.4079,0.4175,0.4196,0.4309,0.4339,0.4448,0.4509,0.4463,0.4681,0.4631,0.4754,0.4758,0.4676,0.4667,0.4681,0.4777,0.4777,0.4776,0.4775,0,0.3796,0.3813,0.3867,0.3877,0.3904,0.3957,0.3988,0.404,0.411,0.4142,0.423,0.428,0.4391,0.4505,0.4582,0.4755,0.4762,0.481,0.4838,0.4753,0.4749,0.452,0.4391,0.4785,0.4783,0.4781,0.478,0,0.3747,0.3794,0.381,0.3871,0.3885,0.3893,0.3938,0.3965,0.4052,0.4101,0.4132,0.4278,0.4452,0.4583,0.4768,0.4843,0.4871,0.5054,0.4961,0.4974,0.4879,0.4765,0.4663,0.4542,0.5268,0.5271,0.5273,0,0.3715,0.3726,0.3768,0.3764,0.3779,0.3802,0.382,0.3913,0.3937,0.4088,0.4109,0.4303,0.4438,0.4767,0.495,0.5189,0.4946,0.525,0.5146,0.4909,0.4801,0.4553,0.4438,0.5152,0.5153,0.5154,0.5155,0,0.364,0.3655,0.3672,0.367,0.3678,0.3676,0.3709,0.3731,0.3849,0.392,0.4048,0.4186,0.4542,0.4755,0.5081,0.5226,0.4985,0.5279,0.5046,0.4741,0.4454,0.4338,0.4958,0.5163,0.5162,0.5162,0.5161,0.5161,0.3559,0.3545,0.3568,0.3552,0.356,0.3544,0.3513,0.3584,0.3636,0.3729,0.3928,0.4107,0.4479,0.4948,0.5084,0.5187,0.5057,0.5076,0.498,0.4765,0.456,0.5221,0.5431,0.5432,0.5432,0.5433,0.5433,0,0.345,0.3453,0.3443,0.3422,0.3378,0.3415,0.3427,0.3396,0.3431,0.3612,0.3731,0.4059,0.4363,0.4672,0.4928,0.4839,0.4699,0.4706,0.4294,0.4215,0.4846,0.4747,0.4798,0.4798,0.4798,0.4799,0.4799,0.4799,0.3387,0.3351,0.3354,0.3249,0.3221,0.3128,0.3108,0.3118,0.3214,0.3335,0.3483,0.3667,0.3996,0.4298,0.4337,0.436,0.3973,0.3907,0.3772,0.4152,0.4174,0.4195,0.4069,0.3977,0.3976,0.3031,0.3023,0.3017]},{"header":{"parameterUnit":"m.s-1","parameterCategory":2,"la1":30.2991,"la2":30.254,"lo1":-89.0895,"lo2":-89.0444,"dy":0.0017,"dx":0.0017,"nx":28,"ny":28,"refTime":"2025-11-17T09:00:00:Z","depth":"0","parameterNumber":3,"parameterNumberName":"V-component_of_CURRENTS"},"data":[0,0,0,0,0,0,0,0,0,0,0,0,0,0,0,0,0,0,0,0,0,0,0,0,0,0,0,0,0,0,0,0,0,0,0,0,0,0,0,0,0,0,0,0,0,0,0,0,0,0,0,0,0,0,0,0,0,0,-0.0898,-0.0899,0,-0.0948,-0.0949,-0.0949,-0.1019,-0.1021,-0.1022,-0.1023,-0.1161,-0.1163,-0.1165,0,0,0,0,0,0,0,0,0,0,0,0,0,-0.0848,-0.0848,-0.0898,-0.0899,-0.09,-0.0948,-0.0949,-0.0949,-0.1019,-0.1021,-0.1022,-0.1024,-0.116,-0.1163,-0.1166,0,0,0,0,0,0,0,0,0,0,0,0,0,-0.0879,-0.0848,-0.0898,-0.0942,-0.0946,-0.0948,-0.0949,-0.0949,-0.1019,-0.1021,-0.1023,-0.1025,-0.1159,-0.1162,-0.1166,-0.1147,0,0,-0.1177,-0.1178,0,0,0,0,0,0,0,0,-0.0877,-0.0881,-0.0935,-0.0939,-0.0944,-0.0981,-0.0981,-0.102,-0.1018,-0.0989,-0.1023,-0.1026,-0.1108,-0.1116,-0.1117,-0.1154,-0.116,-0.1177,-0.1179,-0.1181,-0.1182,0,0,0,0,0,0,0,-0.0875,-0.0879,-0.0916,-0.0935,-0.0941,-0.0954,-0.096,-0.0988,-0.1037,-0.0992,-0.0998,-0.1005,-0.1112,-0.1114,-0.1121,-0.1162,-0.1177,-0.118,-0.1183,-0.1184,-0.1168,-0.1165,0,0,0,0,0,0,-0.0871,-0.0877,-0.0915,-0.0918,-0.0917,-0.0953,-0.096,-0.0966,-0.1035,-0.1047,-0.1004,-0.1008,-0.1106,-0.1117,-0.1127,-0.1089,-0.1181,-0.1184,-0.1186,-0.117,-0.1167,-0.1164,0,0,0,0,0,0,-0.0869,-0.0873,-0.0913,-0.09,-0.0906,-0.0952,-0.0957,-0.0966,-0.097,-0.1043,-0.1057,-0.1,-0.1108,-0.1122,-0.1135,-0.1096,-0.1186,-0.1189,-0.1173,-0.1169,-0.1166,-0.1026,0,0,0,0,0,0,-0.0868,-0.0872,-0.0868,-0.09,-0.0907,-0.0902,-0.0956,-0.0965,-0.0972,-0.0979,-0.1044,-0.1059,-0.1111,-0.1129,-0.1138,-0.1102,-0.1192,-0.1177,-0.1172,-0.1167,-0.1034,-0.1018,-0.1004,0,0,0,0,0,-0.0865,-0.0855,-0.0868,-0.0872,-0.0902,-0.0901,-0.0904,-0.0944,-0.097,-0.0957,-0.0997,-0.1057,-0.1105,-0.113,-0.1142,-0.1106,-0.1179,-0.1173,-0.1167,-0.1041,-0.1021,-0.1005,0,0,0,0,0,0,-0.0835,-0.0862,-0.0877,-0.0876,-0.0882,-0.0914,-0.0909,-0.093,-0.0948,-0.096,-0.1029,-0.1045,-0.104,-0.1085,-0.111,-0.1083,-0.115,-0.1146,-0.1049,-0.1031,-0.1017,-0.1003,-0.1195,0,0,0,0,0,-0.0823,-0.082,-0.0843,-0.0839,-0.084,-0.0868,-0.0872,-0.0894,-0.0918,-0.0929,-0.0968,-0.1005,-0.1021,-0.1038,-0.1063,-0.1051,-0.1094,-0.1032,-0.1017,-0.1004,-0.0998,-0.1015,-0.1001,-0.1145,-0.1145,-0.1145,0,0,-0.0812,-0.0824,-0.0825,-0.0832,-0.0842,-0.0824,-0.0875,-0.0873,-0.0853,-0.0941,-0.0923,-0.0957,-0.1005,-0.0989,-0.0991,-0.1026,-0.0983,-0.0997,-0.0986,-0.0987,-0.1007,-0.0994,-0.0982,-0.1141,-0.1142,-0.1143,0,0,-0.0784,-0.0795,-0.0781,-0.0776,-0.0782,-0.0789,-0.0782,-0.0798,-0.0801,-0.0785,-0.0836,-0.0837,-0.0872,-0.0885,-0.0901,-0.0816,-0.0903,-0.0827,-0.0745,-0.076,-0.0749,-0.074,-0.0769,-0.0763,-0.0821,-0.0821,-0.082,0,-0.0772,-0.0757,-0.0774,-0.0752,-0.0742,-0.0766,-0.0738,-0.073,-0.0745,-0.0739,-0.0765,-0.0781,-0.0816,-0.0794,-0.0758,-0.0782,-0.0818,-0.0812,-0.0742,-0.0734,-0.0727,-0.0759,-0.0755,-0.0813,-0.0814,-0.0815,-0.0816,0,-0.0732,-0.0714,-0.0701,-0.068,-0.0663,-0.0642,-0.0635,-0.0615,-0.0619,-0.0622,-0.06,-0.063,-0.0652,-0.0642,-0.0674,-0.0631,-0.0682,-0.0722,-0.079,-0.0704,-0.0743,-0.0741,-0.0803,-0.0805,-0.0807,-0.0809,0,0,-0.0725,-0.0683,-0.0678,-0.0654,-0.0624,-0.0609,-0.0556,-0.0525,-0.0503,-0.0494,-0.047,-0.0455,-0.0488,-0.0504,-0.0539,-0.0531,-0.0496,-0.0595,-0.0599,-0.0628,-0.0545,-0.0522,-0.0519,-0.0534,-0.0532,-0.0532,-0.059,0,-0.069,-0.0638,-0.0621,-0.0558,-0.0529,-0.0516,-0.0467,-0.0439,-0.0427,-0.0406,-0.0412,-0.041,-0.0432,-0.0447,-0.0433,-0.0492,-0.0487,-0.0478,-0.0621,-0.0625,-0.0618,-0.0513,-0.0407,-0.0444,-0.0589,-0.0589,-0.0588,0,-0.0656,-0.0625,-0.0565,-0.0503,-0.0489,-0.0451,-0.0393,-0.0354,-0.0323,-0.032,-0.0311,-0.034,-0.0322,-0.0362,-0.0395,-0.0396,-0.0451,-0.0488,-0.0492,-0.052,-0.0597,-0.0555,-0.0437,-0.0614,-0.0587,-0.0587,-0.0587,0,-0.065,-0.0583,-0.0535,-0.0513,-0.0448,-0.0416,-0.0378,-0.0334,-0.0298,-0.0279,-0.0268,-0.0271,-0.0283,-0.0328,-0.0383,-0.0405,-0.0429,-0.0486,-0.0514,-0.0516,-0.0475,-0.0474,-0.0547,-0.0503,-0.0503,-0.0503,-0.0503,0,-0.0622,-0.0584,-0.0531,-0.0506,-0.0443,-0.0403,-0.0341,-0.031,-0.0266,-0.0207,-0.0235,-0.0193,-0.0274,-0.0297,-0.0363,-0.0412,-0.0421,-0.0474,-0.0511,-0.0421,-0.0414,-0.0612,-0.0757,-0.0505,-0.0505,-0.0504,-0.0504,0,-0.0623,-0.0589,-0.0532,-0.0464,-0.044,-0.0399,-0.0319,-0.0268,-0.024,-0.0168,-0.0162,-0.0149,-0.0154,-0.0231,-0.0307,-0.0383,-0.052,-0.0466,-0.0354,-0.0375,-0.057,-0.0711,-0.0834,-0.0912,-0.0515,-0.0514,-0.0514,0,-0.0621,-0.0592,-0.0515,-0.0472,-0.044,-0.0376,-0.0317,-0.0264,-0.02,-0.0112,-0.0065,-0.006,0.002,-0.0085,-0.0205,-0.0313,-0.049,-0.0353,-0.0359,-0.0537,-0.0725,-0.081,-0.0875,-0.026,-0.0257,-0.0255,-0.0254,0,-0.061,-0.0585,-0.0535,-0.0451,-0.0385,-0.0302,-0.0214,-0.0153,-0.0062,0.003,0.0175,0.0248,0.0169,0.0172,-0.0013,-0.0125,-0.0462,-0.0317,-0.0521,-0.0531,-0.061,-0.0717,-0.0298,-0.0236,-0.0238,-0.0239,-0.024,-0.0241,-0.0601,-0.0562,-0.0487,-0.0405,-0.0321,-0.019,-0.0085,0.0043,0.0202,0.0449,0.0432,0.0686,0.0544,0.0355,0.0101,-0.028,-0.0358,-0.0374,-0.0533,-0.0604,-0.0661,-0.0203,-0.0174,-0.0175,-0.0176,-0.0177,-0.0178,0,-0.0565,-0.0508,-0.0434,-0.0302,-0.018,-0.0152,0.0024,0.0184,0.0445,0.0736,0.0938,0.1138,0.0912,0.0566,0.0046,-0.0365,-0.0548,-0.0625,-0.0729,-0.0789,-0.0375,-0.0343,-0.0323,-0.0323,-0.0323,-0.0323,-0.0323,-0.0323,-0.0532,-0.0453,-0.0407,-0.0195,-0.0087,0.0124,0.0253,0.0507,0.0772,0.1265,0.1583,0.1767,0.1537,0.0379,-0.0421,-0.0647,-0.101,-0.1059,-0.1297,-0.103,-0.1019,-0.1008,-0.1008,-0.1128,-0.113,-0.1575,-0.158,-0.1584]}],[{"header":{"parameterUnit":"m.s-1","parameterCategory":2,"la1":30.2991,"la2":30.254,"lo1":-89.0895,"lo2":-89.0444,"dy":0.0017,"dx":0.0017,"nx":28,"ny":28,"refTime":"2025-11-17T09:00:00:Z","depth":"2","parameterNumber":2,"parameterNumberName":"U-component_of_CURRENTS"},"data":[0,0,0,0,0,0,0,0,0,0,0,0,0,0,0,0,0,0,0,0,0,0,0,0,0,0,0,0,0,0,0,0,0,0,0,0,0,0,0,0,0,0,0,0,0,0,0,0,0,0,0,0,0,0,0,0,0,0,0.2098,0.21,0,0.2233,0.2234,0.2235,0.229,0.229,0.229,0.2289,0.2397,0.24,0.2403,0,0,0,0,0,0,0,0,0,0,0,0,0,0.1919,0.1922,0.2098,0.21,0.2102,0.2232,0.2234,0.2236,0.229,0.229,0.229,0.2289,0.2396,0.24,0.2403,0,0,0,0,0,0,0,0,0,0,0,0,0,0.2018,0.1923,0.2098,0.2146,0.2151,0.2232,0.2234,0.2236,0.229,0.229,0.229,0.2289,0.2395,0.2399,0.2404,0.2438,0,0,0.2418,0.242,0,0,0,0,0,0,0,0,0.2013,0.2025,0.2137,0.2142,0.2149,0.2245,0.2211,0.2303,0.229,0.2236,0.2289,0.2289,0.2345,0.2354,0.2378,0.2443,0.2447,0.2418,0.2421,0.2423,0.2424,0,0,0,0,0,0,0,0.2006,0.2019,0.215,0.2139,0.2146,0.2171,0.2184,0.2229,0.2289,0.2241,0.2245,0.2262,0.2348,0.2373,0.2381,0.2449,0.2418,0.2422,0.2425,0.2427,0.264,0.2643,0,0,0,0,0,0,0.1991,0.2013,0.2146,0.2154,0.208,0.2174,0.2189,0.2214,0.2289,0.2301,0.2263,0.2265,0.2366,0.2375,0.2385,0.2494,0.2423,0.2427,0.243,0.2637,0.2641,0.2644,0,0,0,0,0,0,0.1987,0.2002,0.214,0.2087,0.2106,0.2178,0.2205,0.2216,0.2261,0.2306,0.2317,0.2296,0.2366,0.2378,0.2459,0.2496,0.2429,0.2433,0.2634,0.2638,0.2642,0.267,0,0,0,0,0,0,0.1981,0.2,0.202,0.2086,0.2109,0.22,0.2206,0.2219,0.2271,0.2275,0.2339,0.2347,0.2367,0.2452,0.2463,0.2501,0.2437,0.263,0.2636,0.2641,0.2665,0.2675,0.2683,0,0,0,0,0,0.1974,0.2001,0.2021,0.2037,0.2133,0.2201,0.2215,0.2263,0.2273,0.23,0.2355,0.2346,0.2495,0.2458,0.2471,0.251,0.2627,0.2634,0.264,0.2662,0.2673,0.2683,0,0,0,0,0,0,0.1938,0.2012,0.2034,0.2084,0.2143,0.2211,0.2245,0.2275,0.234,0.2349,0.2384,0.2399,0.2482,0.2501,0.246,0.2592,0.256,0.2569,0.2572,0.2583,0.2591,0.2608,0.2441,0,0,0,0,0,0.1939,0.1978,0.2049,0.2091,0.2122,0.2186,0.2222,0.2257,0.2319,0.2348,0.2393,0.2453,0.2518,0.2553,0.2606,0.2678,0.2718,0.2714,0.2723,0.273,0.2756,0.287,0.2891,0.2665,0.2665,0.2665,0,0,0.1935,0.1982,0.2005,0.2086,0.2136,0.2196,0.2208,0.2271,0.2325,0.2349,0.2437,0.2484,0.2546,0.2629,0.2668,0.265,0.2811,0.2738,0.2744,0.2767,0.2879,0.2901,0.292,0.267,0.2669,0.2668,0,0,0.1949,0.1993,0.2033,0.2085,0.2165,0.2211,0.2232,0.2312,0.2353,0.2437,0.2478,0.2557,0.2638,0.2704,0.2744,0.2838,0.2854,0.2849,0.2906,0.3016,0.3035,0.3053,0.3104,0.3126,0.2852,0.2853,0.2853,0,0.1945,0.2007,0.2055,0.2111,0.216,0.2219,0.2278,0.2333,0.243,0.2488,0.2467,0.2647,0.268,0.2817,0.2846,0.2857,0.2907,0.2851,0.3026,0.3044,0.3062,0.3111,0.3135,0.2855,0.2854,0.2854,0.2854,0,0.1992,0.2047,0.2077,0.2168,0.2225,0.2284,0.2364,0.2431,0.2478,0.2546,0.2678,0.2736,0.2847,0.2866,0.2881,0.3033,0.3022,0.3019,0.2991,0.3086,0.3131,0.3156,0.2858,0.2857,0.2856,0.2856,0,0,0.1975,0.2086,0.21,0.2148,0.226,0.2311,0.2411,0.2532,0.2611,0.2698,0.2809,0.2922,0.2963,0.3014,0.3048,0.3137,0.3274,0.3133,0.3137,0.3168,0.3494,0.317,0.3164,0.3308,0.3313,0.3318,0.3464,0,0.2003,0.2095,0.2154,0.2253,0.2309,0.2398,0.2486,0.2602,0.2689,0.2807,0.2906,0.3016,0.3016,0.3064,0.3165,0.326,0.3347,0.3234,0.3412,0.3417,0.3105,0.3185,0.3007,0.3096,0.3488,0.3492,0.3495,0,0.2032,0.2094,0.2181,0.23,0.2335,0.2399,0.2555,0.2642,0.2824,0.2897,0.3038,0.311,0.3277,0.3232,0.3467,0.34,0.346,0.3512,0.3519,0.3228,0.3138,0.3074,0.3125,0.3535,0.3532,0.3529,0.3526,0,0.1991,0.2113,0.2177,0.2219,0.2362,0.2422,0.2505,0.2675,0.2765,0.2959,0.304,0.3243,0.3335,0.3478,0.3576,0.355,0.3795,0.3767,0.3536,0.3513,0.34,0.3354,0.3935,0.3935,0.3935,0.3934,0.3934,0,0.1994,0.2048,0.2157,0.2195,0.2281,0.2392,0.2502,0.2621,0.2793,0.2912,0.3076,0.3196,0.3407,0.3553,0.3635,0.3641,0.3853,0.356,0.3539,0.3394,0.3348,0.3764,0.3742,0.394,0.3938,0.3937,0.3936,0,0.1938,0.2012,0.2086,0.222,0.2258,0.2317,0.2471,0.2554,0.2729,0.2881,0.2947,0.3211,0.3396,0.3549,0.3774,0.3665,0.3733,0.3684,0.3448,0.3389,0.3365,0.3344,0.3439,0.3429,0.3421,0.3414,0.3408,0,0.1917,0.1949,0.207,0.21,0.2154,0.225,0.2315,0.25,0.2591,0.2878,0.2945,0.318,0.3287,0.3445,0.3423,0.3458,0.3618,0.3184,0.3056,0.3348,0.3321,0.3313,0.3303,0.2956,0.2947,0.2939,0.2933,0,0.1876,0.1915,0.1974,0.2035,0.2091,0.2157,0.2264,0.2328,0.2548,0.2681,0.2885,0.2989,0.3122,0.306,0.3013,0.301,0.3143,0.3009,0.3502,0.302,0.288,0.2855,0.2867,0.2867,0.2873,0.2878,0.2882,0.2884,0.1836,0.1857,0.1927,0.198,0.2021,0.2059,0.209,0.2205,0.2328,0.2465,0.2641,0.2689,0.2732,0.2548,0.2524,0.2509,0.267,0.2549,0.2582,0.2621,0.245,0.2292,0.2138,0.2141,0.2143,0.2144,0.2146,0,0.1806,0.1838,0.187,0.1922,0.1913,0.1975,0.2052,0.2056,0.2136,0.2217,0.2286,0.2072,0.202,0.2163,0.2015,0.1892,0.2,0.1842,0.2029,0.2093,0.215,0.1965,0.1521,0.1519,0.1517,0.1516,0,0,0.1796,0.1818,0.1837,0.1813,0.1827,0.1809,0.1828,0.1828,0.1866,0.1783,0.1762,0.1812,0.1983,0.1674,0.165,0.159,0.1838,0.1536,0.2039,0.2322,0.2377,0.2552,0.2331,0,0,0,0,0]},{"header":{"parameterUnit":"m.s-1","parameterCategory":2,"la1":30.2991,"la2":30.254,"lo1":-89.0895,"lo2":-89.0444,"dy":0.0017,"dx":0.0017,"nx":28,"ny":28,"refTime":"2025-11-17T09:00:00:Z","depth":"2","parameterNumber":3,"parameterNumberName":"V-component_of_CURRENTS"},"data":[0,0,0,0,0,0,0,0,0,0,0,0,0,0,0,0,0,0,0,0,0,0,0,0,0,0,0,0,0,0,0,0,0,0,0,0,0,0,0,0,0,0,0,0,0,0,0,0,0,0,0,0,0,0,0,0,0,0,0.0133,0.0132,0,0.0078,0.0078,0.0077,0.0033,0.0033,0.0032,0.0032,-0.0033,-0.0034,-0.0036,0,0,0,0,0,0,0,0,0,0,0,0,0,0.0186,0.0186,0.0133,0.0132,0.0132,0.0078,0.0078,0.0077,0.0033,0.0033,0.0032,0.0032,-0.0033,-0.0034,-0.0036,0,0,0,0,0,0,0,0,0,0,0,0,0,0.015,0.0186,0.0133,0.0104,0.01,0.0079,0.0078,0.0077,0.0033,0.0033,0.0032,0.0031,-0.0032,-0.0034,-0.0036,-0.0036,0,0,-0.0042,-0.0043,0,0,0,0,0,0,0,0,0.0153,0.0148,0.0109,0.0106,0.0102,0.0062,0.0073,0.0039,0.0033,0.0058,0.0032,0.0031,-0.0001,-0.0006,-0.0015,-0.0039,-0.0042,-0.0042,-0.0044,-0.0044,-0.0045,0,0,0,0,0,0,0,0.0155,0.015,0.0111,0.0108,0.0104,0.0089,0.0083,0.0066,0.0032,0.0056,0.0053,0.0048,-0.0003,-0.0013,-0.0017,-0.0043,-0.0042,-0.0044,-0.0045,-0.0046,-0.0065,-0.0064,0,0,0,0,0,0,0.0164,0.0153,0.0113,0.0109,0.0127,0.0088,0.0082,0.0075,0.0032,0.0026,0.0048,0.0046,-0.0009,-0.0015,-0.002,0.0007,-0.0044,-0.0046,-0.0047,-0.0065,-0.0065,-0.0064,0,0,0,0,0,0,0.0165,0.0161,0.0115,0.013,0.0123,0.0088,0.0081,0.0075,0.0072,0.0027,0.0019,0.0053,-0.001,-0.0017,-0.0026,0.0003,-0.0047,-0.0049,-0.0066,-0.0065,-0.0064,0.0043,0,0,0,0,0,0,0.0167,0.0162,0.017,0.0131,0.0123,0.0118,0.0081,0.0074,0.0069,0.0066,0.0029,0.0021,-0.0011,-0.0023,-0.0028,-0.0,-0.0051,-0.0067,-0.0066,-0.0064,0.0038,0.0047,0.0055,0,0,0,0,0,0.0169,0.0187,0.0171,0.0166,0.0132,0.0119,0.0114,0.0086,0.0071,0.008,0.0049,0.0023,-0.0019,-0.0024,-0.003,-0.0002,-0.0068,-0.0066,-0.0065,0.0034,0.0045,0.0055,0,0,0,0,0,0,0.0222,0.0183,0.0164,0.0171,0.0152,0.0112,0.0121,0.0098,0.0081,0.0079,0.0033,0.0024,0.0023,-0.0005,-0.001,-0.0006,-0.0048,-0.0047,0.003,0.004,0.0048,0.0085,-0.0052,0,0,0,0,0,0.0236,0.0235,0.0197,0.0205,0.0198,0.0161,0.0155,0.0135,0.011,0.0102,0.0074,0.0044,0.0024,0.002,-0.0007,0.0003,-0.0024,0.0014,0.0023,0.003,0.0054,0.0031,0.0041,-0.0059,-0.0059,-0.0059,0,0,0.0258,0.0238,0.0237,0.0216,0.0198,0.0212,0.0157,0.0155,0.0171,0.0099,0.0114,0.0071,0.003,0.0034,0.0033,0.0018,0.0043,0.0032,0.0039,0.006,0.0034,0.0044,0.0053,-0.0057,-0.0058,-0.0058,0,0,0.031,0.0285,0.0306,0.0294,0.0274,0.0256,0.0261,0.0228,0.0217,0.0217,0.0169,0.015,0.0118,0.0102,0.0088,0.0129,0.0082,0.0113,0.0197,0.0174,0.0183,0.019,0.0169,0.0174,0.0126,0.0126,0.0126,0,0.0343,0.036,0.0313,0.0333,0.0343,0.0284,0.0324,0.0304,0.0273,0.0288,0.0237,0.0204,0.0156,0.0182,0.0183,0.0152,0.0127,0.0165,0.0187,0.0194,0.0199,0.0176,0.018,0.0131,0.013,0.013,0.0129,0,0.0407,0.0426,0.044,0.0448,0.0454,0.0474,0.0444,0.0449,0.0423,0.041,0.0413,0.0336,0.0325,0.0296,0.0248,0.0273,0.0238,0.0195,0.0168,0.0216,0.0188,0.019,0.0139,0.0137,0.0135,0.0134,0,0,0.0471,0.0486,0.0492,0.0531,0.0519,0.0541,0.0566,0.0593,0.0642,0.0577,0.063,0.0556,0.0511,0.049,0.0421,0.0392,0.0388,0.0316,0.0312,0.0308,0.0341,0.0191,0.0178,0.0345,0.0346,0.0347,0.0306,0,0.0544,0.0618,0.0602,0.0692,0.0736,0.0705,0.0749,0.0761,0.0752,0.0782,0.07,0.0711,0.0586,0.058,0.0529,0.0433,0.0398,0.0404,0.0285,0.0282,0.0153,0.0177,0.0183,0.0136,0.0307,0.0308,0.0308,0,0.0618,0.0664,0.0761,0.084,0.0859,0.0907,0.0988,0.1016,0.103,0.1023,0.1001,0.0925,0.0879,0.0751,0.0618,0.0626,0.0496,0.0402,0.0398,0.0226,0.0135,0.0114,0.0132,0.031,0.031,0.031,0.031,0,0.0706,0.0783,0.0876,0.0896,0.0964,0.1023,0.1067,0.1106,0.1163,0.1182,0.1214,0.1133,0.1101,0.0936,0.0703,0.0671,0.0543,0.0478,0.0226,0.0214,0.0181,0.0163,0.0383,0.0383,0.0383,0.0383,0.0384,0,0.0796,0.087,0.0933,0.0986,0.1125,0.1136,0.1277,0.1305,0.1366,0.1454,0.1347,0.1377,0.114,0.1014,0.0788,0.0511,0.0606,0.025,0.0194,0.0214,0.02,0.0318,0.0311,0.0382,0.0382,0.0383,0.0383,0,0.0874,0.0904,0.1023,0.1125,0.117,0.1273,0.1408,0.1503,0.1543,0.1645,0.1654,0.1584,0.141,0.1142,0.0889,0.0626,0.0379,0.0253,0.0282,0.0226,0.0049,0.0048,-0.0014,-0.002,-0.0025,-0.0029,-0.0032,0,0.0921,0.0989,0.1127,0.1206,0.1261,0.1403,0.1504,0.159,0.1691,0.1765,0.1824,0.1701,0.1582,0.1151,0.0725,0.0313,0.0307,0.0026,-0.0062,0.0057,0.0009,0.0016,0.0021,-0.0046,-0.0049,-0.0051,-0.0053,0,0.1016,0.1058,0.1146,0.1311,0.1438,0.1589,0.1738,0.1842,0.1934,0.1998,0.206,0.1969,0.154,0.1087,0.0496,0.0236,0.0083,-0.0049,0.0114,0.0019,0.0014,-0.003,-0.002,-0.0077,-0.0074,-0.0073,-0.0071,-0.007,0.1075,0.1152,0.1265,0.1421,0.1565,0.1751,0.188,0.2014,0.2162,0.2167,0.2104,0.1875,0.144,0.0586,0.0235,-0.0119,-0.0126,-0.0302,-0.0286,-0.027,-0.0301,-0.0319,-0.0475,-0.0475,-0.0475,-0.0475,-0.0475,0,0.114,0.1224,0.1369,0.1556,0.172,0.1793,0.2013,0.2119,0.2267,0.2124,0.2026,0.1445,0.0939,0.054,-0.0042,-0.0421,-0.0354,-0.0494,-0.0336,-0.0315,-0.0296,-0.0321,-0.0504,-0.0504,-0.0504,-0.0505,0,0,0.1176,0.1303,0.1378,0.1646,0.1784,0.2,0.2124,0.2263,0.2231,0.2001,0.1729,0.1326,0.0901,0.0434,0.0021,-0.0227,-0.0173,-0.0262,-0.0218,0.0036,0.0061,-0.0186,-0.0204,0,0,0,0,0]}],[{"header":{"parameterUnit":"m.s-1","parameterCategory":2,"la1":30.2991,"la2":30.254,"lo1":-89.0895,"lo2":-89.0444,"dy":0.0017,"dx":0.0017,"nx":28,"ny":28,"refTime":"2025-11-17T09:00:00:Z","depth":"4","parameterNumber":2,"parameterNumberName":"U-component_of_CURRENTS"},"data":[0,0,0,0,0,0,0,0,0,0,0,0,0,0,0,0,0,0,0,0,0,0,0,0,0,0,0,0,0,0,0,0,0,0,0,0,0,0,0,0,0,0,0,0,0,0,0,0,0,0,0,0,0,0,0,0,0,0,0.0716,0.0716,0,0.0776,0.0778,0.0779,0.0815,0.0815,0.0814,0.0814,0.0867,0.0869,0.0871,0,0,0,0,0,0,0,0,0,0,0,0,0,0.0689,0.069,0.0716,0.0716,0.0717,0.0776,0.0778,0.0779,0.0815,0.0815,0.0814,0.0814,0.0866,0.0869,0.0871,0,0,0,0,0,0,0,0,0,0,0,0,0,0.0727,0.069,0.0716,0.0736,0.0738,0.0776,0.0778,0.078,0.0816,0.0815,0.0814,0.0813,0.0866,0.0868,0.0871,0.0903,0,0,0.088,0.0881,0,0,0,0,0,0,0,0,0.0725,0.0729,0.0733,0.0735,0.0737,0.0781,0.0787,0.0818,0.0816,0.0794,0.0814,0.0813,0.0833,0.0839,0.0862,0.0906,0.0908,0.088,0.0882,0.0883,0.0884,0,0,0,0,0,0,0,0.0722,0.0727,0.0748,0.0733,0.0736,0.0761,0.0766,0.0794,0.0823,0.0796,0.0797,0.0792,0.0835,0.086,0.0864,0.0909,0.088,0.0883,0.0884,0.0885,0.0992,0.0993,0,0,0,0,0,0,0.0698,0.0724,0.0746,0.0749,0.0721,0.0761,0.0767,0.0774,0.0823,0.0827,0.0793,0.0793,0.0855,0.086,0.0866,0.0942,0.0883,0.0886,0.0887,0.0991,0.0992,0.0993,0,0,0,0,0,0,0.0697,0.07,0.0743,0.0731,0.0737,0.0761,0.0769,0.0775,0.082,0.0819,0.0825,0.0832,0.0855,0.0862,0.09,0.0943,0.0887,0.0889,0.0989,0.0991,0.0993,0.1072,0,0,0,0,0,0,0.0697,0.07,0.0712,0.073,0.0737,0.0778,0.0769,0.0777,0.0813,0.0816,0.0855,0.0858,0.0855,0.0895,0.0902,0.0946,0.0892,0.0988,0.099,0.0992,0.1068,0.1077,0.1084,0,0,0,0,0,0.0696,0.0706,0.0713,0.0716,0.0748,0.0779,0.0787,0.0805,0.0816,0.0844,0.0861,0.0858,0.0914,0.0899,0.0907,0.0952,0.0987,0.0989,0.0992,0.1065,0.1075,0.1084,0,0,0,0,0,0,0.0702,0.0711,0.0718,0.0733,0.0759,0.0782,0.0807,0.0825,0.0866,0.0874,0.0878,0.0882,0.0921,0.0928,0.0911,0.0985,0.0948,0.0953,0.1001,0.1011,0.1018,0.0994,0.0894,0,0,0,0,0,0.0707,0.0721,0.0736,0.0752,0.0767,0.0798,0.0818,0.0835,0.0861,0.0881,0.0905,0.0925,0.0938,0.0966,0.0972,0.1033,0.1013,0.1063,0.1071,0.1077,0.1061,0.1065,0.1071,0.1002,0.1002,0.1002,0,0,0.0712,0.0719,0.0728,0.0755,0.0781,0.0808,0.0812,0.0851,0.0884,0.0879,0.0943,0.0948,0.0952,0.0999,0.1021,0.1017,0.1093,0.1081,0.1086,0.1066,0.1068,0.1075,0.1081,0.1003,0.1003,0.1003,0,0,0.0725,0.0742,0.076,0.0784,0.0818,0.0835,0.0852,0.0896,0.0931,0.0978,0.0977,0.0999,0.1047,0.1054,0.1062,0.1118,0.1116,0.1144,0.1191,0.1197,0.1202,0.1207,0.1217,0.1222,0.117,0.117,0.117,0,0.0731,0.0753,0.0773,0.0798,0.0819,0.0849,0.0882,0.0921,0.0975,0.1004,0.1,0.1051,0.1058,0.1103,0.1125,0.1134,0.1146,0.1161,0.1207,0.1211,0.1214,0.1223,0.1227,0.1174,0.1174,0.1174,0.1173,0,0.0752,0.0781,0.0797,0.0833,0.0865,0.0899,0.0941,0.0992,0.1026,0.1052,0.1105,0.1113,0.1143,0.1161,0.1163,0.1212,0.1217,0.12,0.1184,0.1226,0.1233,0.1236,0.118,0.1179,0.1178,0.1177,0,0,0.0735,0.0798,0.0805,0.0838,0.0889,0.0919,0.0979,0.1036,0.1079,0.1124,0.1168,0.1198,0.1213,0.122,0.1242,0.1256,0.1299,0.1261,0.1259,0.1271,0.1335,0.1275,0.1272,0.1313,0.1313,0.1313,0.134,0,0.0748,0.0797,0.0828,0.0888,0.0922,0.0972,0.1022,0.108,0.1125,0.1177,0.1196,0.124,0.1239,0.1275,0.1287,0.129,0.1308,0.1294,0.129,0.1289,0.1231,0.1272,0.1314,0.1342,0.1343,0.1343,0.1344,0,0.0752,0.0789,0.0846,0.0925,0.0946,0.0989,0.1076,0.1129,0.1197,0.1239,0.1283,0.1298,0.1345,0.1321,0.1349,0.1356,0.135,0.1339,0.1339,0.1247,0.1233,0.1284,0.1348,0.1348,0.1347,0.1347,0.1347,0,0.0722,0.0801,0.0849,0.0874,0.0962,0.1015,0.1071,0.1149,0.1206,0.1292,0.1328,0.1371,0.1405,0.14,0.1397,0.1393,0.1398,0.1383,0.1316,0.1313,0.1322,0.1317,0.1375,0.1375,0.1375,0.1375,0.1375,0,0.0708,0.0751,0.0848,0.0873,0.0949,0.1018,0.1098,0.1169,0.1252,0.1306,0.137,0.1398,0.1428,0.1437,0.1416,0.1382,0.1422,0.1317,0.1311,0.136,0.1358,0.1326,0.132,0.1376,0.1376,0.1375,0.1375,0,0.0662,0.0722,0.0782,0.0889,0.0936,0.0991,0.112,0.1166,0.127,0.1339,0.1376,0.1442,0.1461,0.1467,0.1456,0.1409,0.1375,0.1347,0.1413,0.1411,0.1282,0.128,0.1276,0.1274,0.1272,0.1271,0.127,0,0.064,0.0667,0.0781,0.0824,0.0881,0.098,0.1039,0.1167,0.1214,0.1344,0.1357,0.1422,0.1449,0.1386,0.1397,0.1368,0.1341,0.1332,0.1283,0.1274,0.127,0.1271,0.1271,0.1267,0.1266,0.1266,0.1266,0,0.0597,0.0639,0.0687,0.0771,0.0849,0.093,0.1031,0.1058,0.119,0.129,0.1321,0.1335,0.1345,0.1328,0.1329,0.1294,0.1343,0.1314,0.1316,0.127,0.1264,0.1261,0.1263,0.126,0.1261,0.1261,0.1261,0,0.0561,0.0578,0.0639,0.0714,0.0806,0.0866,0.0922,0.0989,0.1059,0.1204,0.12,0.1261,0.1326,0.1289,0.1274,0.1259,0.1228,0.1186,0.1195,0.1202,0.1163,0.1142,0.1094,0,0,0,0,0,0.0525,0.054,0.0584,0.0659,0.0742,0.0804,0.0912,0.0961,0.1077,0.1077,0.1148,0.1155,0.1165,0.1179,0.1142,0.1221,0.122,0.1173,0.1173,0.1227,0.1234,0.1194,0,0,0,0,0,0,0.0499,0.0535,0.0553,0.0607,0.0646,0.0735,0.08,0.0872,0.0876,0.099,0.0985,0.1094,0.1093,0.1168,0.1119,0.1128,0.1108,0.122,0.1218,0.1224,0.123,0.1235,0.1196,0,0,0,0,0]},{"header":{"parameterUnit":"m.s-1","parameterCategory":2,"la1":30.2991,"la2":30.254,"lo1":-89.0895,"lo2":-89.0444,"dy":0.0017,"dx":0.0017,"nx":28,"ny":28,"refTime":"2025-11-17T09:00:00:Z","depth":"4","parameterNumber":3,"parameterNumberName":"V-component_of_CURRENTS"},"data":[0,0,0,0,0,0,0,0,0,0,0,0,0,0,0,0,0,0,0,0,0,0,0,0,0,0,0,0,0,0,0,0,0,0,0,0,0,0,0,0,0,0,0,0,0,0,0,0,0,0,0,0,0,0,0,0,0,0,0.0159,0.0159,0,0.0104,0.0103,0.0102,0.0075,0.0075,0.0076,0.0076,0.0,-0.0002,-0.0005,0,0,0,0,0,0,0,0,0,0,0,0,0,0.017,0.017,0.0159,0.0159,0.0158,0.0104,0.0103,0.0101,0.0075,0.0075,0.0076,0.0077,0.0001,-0.0002,-0.0005,0,0,0,0,0,0,0,0,0,0,0,0,0,0.014,0.017,0.0159,0.0143,0.0141,0.0104,0.0103,0.0101,0.0075,0.0075,0.0076,0.0077,0.0002,-0.0002,-0.0005,-0.0043,0,0,-0.0017,-0.0018,0,0,0,0,0,0,0,0,0.0142,0.0139,0.0145,0.0144,0.0142,0.0102,0.0079,0.0053,0.0074,0.0094,0.0076,0.0077,0.0035,0.0029,0.0009,-0.0047,-0.005,-0.0017,-0.0019,-0.0021,-0.0022,0,0,0,0,0,0,0,0.0144,0.0141,0.0132,0.0145,0.0143,0.0114,0.0111,0.0073,0.0057,0.0093,0.0092,0.0094,0.0033,0.0013,0.0007,-0.0051,-0.0017,-0.002,-0.0023,-0.0024,-0.0136,-0.0136,0,0,0,0,0,0,0.0165,0.0144,0.0133,0.0131,0.015,0.0114,0.011,0.0109,0.0057,0.0052,0.0093,0.0093,0.0019,0.0012,0.0005,-0.0034,-0.0021,-0.0024,-0.0027,-0.0135,-0.0136,-0.0136,0,0,0,0,0,0,0.0165,0.0164,0.0136,0.014,0.0135,0.0114,0.0113,0.0108,0.0091,0.0059,0.0052,0.0083,0.0019,0.001,-0.0026,-0.0037,-0.0026,-0.003,-0.0134,-0.0135,-0.0136,-0.0116,0,0,0,0,0,0,0.0165,0.0164,0.0168,0.0141,0.0136,0.012,0.0113,0.0107,0.0094,0.0092,0.0048,0.0041,0.0019,-0.0021,-0.003,-0.0042,-0.0032,-0.0133,-0.0134,-0.0136,-0.0116,-0.0116,-0.0117,0,0,0,0,0,0.0166,0.0173,0.0168,0.0167,0.0142,0.012,0.0113,0.0097,0.0093,0.0084,0.0054,0.0043,-0.0036,-0.0024,-0.0035,-0.0048,-0.0132,-0.0134,-0.0136,-0.0116,-0.0116,-0.0117,0,0,0,0,0,0,0.0176,0.017,0.0165,0.0169,0.0149,0.0118,0.0113,0.0097,0.0064,0.0065,0.003,0.0021,-0.0014,-0.0037,-0.0023,-0.0085,-0.0085,-0.0089,-0.0066,-0.0067,-0.0068,-0.0062,-0.0036,0,0,0,0,0,0.0182,0.0187,0.0169,0.0171,0.0164,0.0136,0.0125,0.0112,0.0084,0.0071,0.0039,0.0004,-0.0032,-0.0051,-0.0084,-0.0122,-0.0147,-0.0137,-0.0138,-0.0138,-0.0142,-0.0191,-0.0196,-0.0142,-0.0142,-0.0142,0,0,0.0186,0.0185,0.0187,0.0174,0.0157,0.0143,0.0129,0.0116,0.01,0.0066,0.0033,0.0001,-0.0042,-0.0079,-0.0097,-0.0099,-0.0165,-0.014,-0.014,-0.0143,-0.0193,-0.0199,-0.0203,-0.0143,-0.0143,-0.0142,0,0,0.0195,0.0195,0.0199,0.0185,0.0171,0.0153,0.0151,0.0118,0.0101,0.0066,0.0038,-0.0001,-0.0053,-0.0089,-0.0113,-0.0139,-0.0164,-0.0148,-0.015,-0.0198,-0.0203,-0.0207,-0.0235,-0.0243,-0.015,-0.015,-0.015,0,0.02,0.0203,0.0194,0.019,0.0181,0.0159,0.015,0.0126,0.0084,0.0062,0.0063,-0.0029,-0.0059,-0.0118,-0.0123,-0.014,-0.0165,-0.0141,-0.0198,-0.0203,-0.0208,-0.0236,-0.0244,-0.015,-0.015,-0.015,-0.015,0,0.0205,0.0207,0.0207,0.0197,0.0183,0.0174,0.0147,0.0124,0.0104,0.0074,0.0019,-0.0029,-0.0083,-0.01,-0.0119,-0.0175,-0.0179,-0.0189,-0.0192,-0.0212,-0.024,-0.0249,-0.0148,-0.0149,-0.0149,-0.0149,0,0,0.0216,0.0213,0.0213,0.0211,0.0187,0.0177,0.0151,0.0114,0.0091,0.0049,0.0008,-0.0054,-0.0081,-0.011,-0.0146,-0.0188,-0.0238,-0.0201,-0.0204,-0.0222,-0.0333,-0.0298,-0.0305,-0.0258,-0.026,-0.0261,-0.0335,0,0.022,0.0226,0.0216,0.0209,0.0206,0.0177,0.0154,0.0118,0.0082,0.0037,-0.0019,-0.0066,-0.0084,-0.011,-0.0158,-0.0223,-0.0262,-0.0216,-0.0318,-0.0321,-0.0283,-0.0315,-0.0266,-0.0342,-0.0344,-0.0345,-0.0346,0,0.0223,0.023,0.0232,0.0219,0.0213,0.0205,0.0164,0.0139,0.0073,0.0043,-0.0017,-0.0062,-0.0138,-0.0141,-0.0261,-0.0231,-0.0278,-0.0322,-0.0326,-0.0308,-0.0304,-0.0323,-0.0363,-0.0361,-0.036,-0.0359,-0.0358,0,0.0239,0.0237,0.0245,0.024,0.0221,0.0213,0.0198,0.0143,0.0124,0.0047,0.0025,-0.0076,-0.0117,-0.0204,-0.0285,-0.0281,-0.0405,-0.0413,-0.0426,-0.0423,-0.0439,-0.0434,-0.0491,-0.0491,-0.0491,-0.0491,-0.049,0,0.0246,0.025,0.026,0.0264,0.0268,0.0242,0.0228,0.0194,0.0147,0.0129,0.0038,-0.0001,-0.0134,-0.0216,-0.0293,-0.0382,-0.0413,-0.0434,-0.0447,-0.0428,-0.042,-0.0445,-0.0439,-0.0493,-0.0493,-0.0492,-0.0492,0,0.0256,0.0262,0.0274,0.0275,0.028,0.0283,0.0275,0.0258,0.0213,0.0186,0.0168,0.0049,-0.0064,-0.0183,-0.0329,-0.0379,-0.0476,-0.0493,-0.0453,-0.0461,-0.0462,-0.0454,-0.0534,-0.0533,-0.0533,-0.0533,-0.0532,0,0.026,0.0272,0.0296,0.0311,0.0317,0.0325,0.0327,0.0297,0.0289,0.0223,0.0214,0.0097,0.0015,-0.0166,-0.0301,-0.0456,-0.0464,-0.0511,-0.0502,-0.0465,-0.047,-0.0462,-0.0455,-0.0532,-0.0532,-0.0531,-0.0531,0,0.0268,0.0282,0.0296,0.0336,0.0356,0.037,0.0381,0.0386,0.0353,0.0321,0.0257,0.0145,0.0018,-0.0148,-0.0262,-0.0372,-0.0489,-0.0508,-0.0509,-0.0501,-0.0463,-0.0467,-0.046,-0.053,-0.053,-0.053,-0.053,0,0.0275,0.0289,0.0319,0.0352,0.0384,0.0408,0.0407,0.0403,0.0395,0.0343,0.0322,0.0171,0.0076,-0.0104,-0.0213,-0.0319,-0.0348,-0.0373,-0.0382,-0.0385,-0.0318,-0.0246,-0.0265,0,0,0,0,0,0.0281,0.0301,0.0329,0.0364,0.0399,0.0421,0.0438,0.0431,0.0421,0.0396,0.0366,0.0254,0.0066,-0.0042,-0.014,-0.0217,-0.0374,-0.0335,-0.0408,-0.0523,-0.0524,-0.0467,0,0,0,0,0,0,0.0282,0.0314,0.0328,0.0377,0.0405,0.0439,0.0454,0.0443,0.0427,0.0401,0.0297,0.0248,0.0053,0.0132,-0.0135,-0.0173,-0.0228,-0.0429,-0.0431,-0.0522,-0.0523,-0.0524,-0.0466,0,0,0,0,0]}]]